User: anonymous   Login
Location: Vancouver
(49.2500°N, 123.1330°W)
Time: 03:27:31
(UTC-08:00)
Language:

CZ-2C R/B - Orbit

View from above orbital plane
View from above orbital plane
View from above satellite
View from above satellite

Ground track
Ground track

The orbit data is extracted from the following two-line orbital elements,

1 28480U 04046B   17328.83259390  .00000026  00000-0  24975-4 0  9995
2 28480  98.1937  54.6656 0143148 110.3765 359.1323 14.25657692677123
Epoch (UTC): 24 November 2017 19:58:56
Eccentricity: 0.0143148
inclination: 98.1937°
perigee height: 703 km
apogee height: 909 km
right ascension of ascending node: 54.6656°
argument of perigee: 110.3765°
revolutions per day: 14.25657692
mean anomaly at epoch: 359.1323°
orbit number at epoch: 67712

The dashed part of the orbit path shows where the satellite is in the earth's shadow,  

DLR